Pecos, TX

4:35 AM CDT on May 29, 2017 (GMT -0500)
Pecos Municipal

Weather History for KPEQ - November, 2012

Change the Weather History Date:

Wednesday, November 21, 2012

  Actual Average Record
Temperature  
Mean Temperature 58 °F -  
Max Temperature 71 °F 67 °F 86 °F (2010)
Min Temperature 46 °F 34 °F 20 °F (1969)
Degree Days  
Heating Degree Days 6    
Growing Degree Days 8 (Base 50)    
Moisture  
Dew Point 40 °F    
Average Humidity 53    
Maximum Humidity 67    
Minimum Humidity 37    
Precipitation  
Precipitation 0.00 in - - ()
Sea Level Pressure  
Sea Level Pressure 30.15 in    
Wind  
Wind Speed 2 mph (East)    
Max Wind Speed 8 mph    
Max Gust Speed -    
Visibility 10 miles    
Events      
Averages and records for this station are not official NWS values.
T = Trace of Precipitation, MM = Missing Value Source: NWS Daily Summary

Daily Weather History Graph

Daily Weather History Graph

Search for Another Location

Airport or City:

Trip Planner

Search our weather history database for the weather conditions in past years. The results will help you decide how hot, cold, wet, or windy it might be!

Date:

Astronomy

Nov. 21, 2012 Rise Set
Actual Time 7:27 AM CST 5:52 PM CST
Civil Twilight 7:01 AM CST 6:18 PM CST
Nautical Twilight 6:31 AM CST 6:48 PM CST
Astronomical Twilight 6:02 AM CST 7:17 PM CST
Moon 1:49 PM CST (11/21) 1:11 AM CST (11/21)
Length of Visible Light 11h 17m
Length of Day
10h 25m
First Quarter, 62% of the Moon is Illuminated
Nov 21
First Quarter
Nov 28
Full
Dec 6
Last Quarter
Dec 13
New
Dec 19
First Quarter

Hourly Weather History & Observations

Time (CST) Temp. Dew Point Humidity Pressure Visibility Wind Dir Wind Speed Gust Speed Precip Events Conditions
12:15 AM 53.2 °F 37.0 °F 54% 30.20 in 10.0 mi NNE 4.6 mph - N/A   Clear
12:35 AM 53.2 °F 37.0 °F 54% 30.19 in 10.0 mi NE 5.8 mph - N/A   Clear
12:55 AM 53.8 °F 37.0 °F 53% 30.20 in 10.0 mi NE 3.5 mph - N/A   Clear
1:15 AM 53.8 °F 36.9 °F 53% 30.19 in 10.0 mi Calm Calm - N/A   Clear
1:35 AM 50.9 °F 35.8 °F 56% 30.19 in 10.0 mi Calm Calm - N/A   Clear
1:55 AM 49.5 °F 35.4 °F 58% 30.19 in 10.0 mi Calm Calm - N/A   Clear
2:15 AM 49.1 °F 35.2 °F 59% 30.19 in 10.0 mi Calm Calm - N/A   Clear
2:35 AM 50.0 °F 35.6 °F 58% 30.19 in 10.0 mi Calm Calm - N/A   Clear
2:55 AM 52.5 °F 36.0 °F 53% 30.19 in 10.0 mi Calm Calm - N/A   Clear
3:15 AM 51.1 °F 35.8 °F 56% 30.19 in 10.0 mi NE 5.8 mph - N/A   Clear
3:35 AM 50.9 °F 35.6 °F 56% 30.19 in 10.0 mi ENE 3.5 mph - N/A   Clear
3:55 AM 50.7 °F 34.9 °F 55% 30.19 in 10.0 mi NE 4.6 mph - N/A   Clear
4:15 AM 50.9 °F 34.9 °F 54% 30.19 in 10.0 mi NE 5.8 mph - N/A   Clear
4:35 AM 50.9 °F 34.7 °F 54% 30.19 in 10.0 mi ENE 4.6 mph - N/A   Clear
4:55 AM 49.1 °F 34.3 °F 57% 30.19 in 10.0 mi Calm Calm - N/A   Clear
5:15 AM 49.5 °F 34.3 °F 56% 30.18 in 10.0 mi Calm Calm - N/A   Clear
5:35 AM 48.9 °F 34.5 °F 58% 30.19 in 10.0 mi Calm Calm - N/A   Clear
5:55 AM 48.9 °F 35.2 °F 59% 30.19 in 10.0 mi Calm Calm - N/A   Clear
6:15 AM 46.8 °F 34.7 °F 63% 30.19 in 10.0 mi Calm Calm - N/A   Clear
6:35 AM 47.5 °F 35.8 °F 64% 30.19 in 10.0 mi NE 4.6 mph - N/A   Clear
6:55 AM 48.4 °F 35.6 °F 61% 30.19 in 10.0 mi Calm Calm - N/A   Clear
7:35 AM 48.2 °F 36.0 °F 63% 30.20 in 10.0 mi Calm Calm - N/A   Clear
7:55 AM 48.6 °F 36.3 °F 63% 30.21 in 10.0 mi SW 3.5 mph - N/A   Clear
8:15 AM 47.7 °F 35.4 °F 63% 30.20 in 10.0 mi Calm Calm - N/A   Clear
8:35 AM 48.7 °F 36.3 °F 62% 30.21 in 10.0 mi Calm Calm - N/A   Clear
8:55 AM 50.0 °F 36.5 °F 60% 30.22 in 10.0 mi West 3.5 mph - N/A   Clear
9:15 AM 51.3 °F 37.8 °F 60% 30.22 in 10.0 mi NE 3.5 mph - N/A   Clear
9:35 AM 53.1 °F 39.2 °F 59% 30.23 in 10.0 mi Calm Calm - N/A   Clear
9:55 AM 54.9 °F 39.6 °F 56% 30.23 in 10.0 mi Calm Calm - N/A   Clear
10:35 AM 57.4 °F 40.5 °F 53% 30.22 in 10.0 mi Calm Calm - N/A   Clear
10:55 AM 58.3 °F 41.2 °F 53% 30.22 in 10.0 mi Calm Calm - N/A   Clear
11:15 AM 59.4 °F 41.4 °F 51% 30.21 in 10.0 mi Calm Calm - N/A   Clear
11:35 AM 59.9 °F 41.0 °F 50% 30.21 in 10.0 mi Calm Calm - N/A   Clear
12:15 PM 63.9 °F 41.4 °F 44% 30.18 in 10.0 mi Calm Calm - N/A   Clear
12:35 PM 65.5 °F 41.7 °F 42% 30.16 in 10.0 mi NE 3.5 mph - N/A   Clear
12:55 PM 67.3 °F 41.9 °F 40% 30.14 in 10.0 mi East 5.8 mph - N/A   Clear
1:15 PM 68.2 °F 42.6 °F 40% 30.13 in 10.0 mi ESE 4.6 mph - N/A   Clear
1:35 PM 70.3 °F 43.3 °F 38% 30.13 in 10.0 mi East 4.6 mph - N/A   Clear
2:15 PM 70.2 °F 42.8 °F 37% 30.12 in 10.0 mi WSW 4.6 mph - N/A   Clear
2:35 PM 71.1 °F 43.2 °F 37% 30.11 in 10.0 mi WSW 8.1 mph - N/A   Clear
3:15 PM 70.7 °F 43.7 °F 38% 30.09 in 10.0 mi Calm Calm - N/A   Clear
3:35 PM 71.6 °F 43.9 °F 37% 30.09 in 10.0 mi Calm Calm - N/A   Clear
3:55 PM 71.6 °F 44.1 °F 37% 30.09 in 10.0 mi Calm Calm - N/A   Clear
4:15 PM 71.6 °F 45.0 °F 38% 30.09 in 10.0 mi Calm Calm - N/A   Clear
4:35 PM 71.2 °F 45.3 °F 39% 30.09 in 10.0 mi Calm Calm - N/A   Scattered Clouds
4:55 PM 70.5 °F 45.5 °F 41% 30.09 in 10.0 mi Calm Calm - N/A   Mostly Cloudy
5:15 PM 69.8 °F 45.1 °F 41% 30.09 in 10.0 mi Calm Calm - N/A   Mostly Cloudy
5:35 PM 68.4 °F 48.0 °F 48% 30.09 in 10.0 mi Calm Calm - N/A   Overcast
5:55 PM 66.9 °F 45.5 °F 46% 30.09 in 10.0 mi SE 5.8 mph - N/A   Mostly Cloudy
6:15 PM 66.2 °F 45.5 °F 47% 30.08 in 10.0 mi ESE 5.8 mph - N/A   Scattered Clouds
6:35 PM 64.2 °F 44.8 °F 49% 30.07 in 10.0 mi SSE 8.1 mph - N/A   Clear
6:55 PM 63.5 °F 44.8 °F 51% 30.07 in 10.0 mi SSE 4.6 mph - N/A   Clear
7:15 PM 62.1 °F 44.6 °F 53% 30.07 in 10.0 mi SSE 5.8 mph - N/A   Clear
7:55 PM 58.5 °F 44.1 °F 59% 30.09 in 10.0 mi SW 4.6 mph - N/A   Clear
9:15 PM 55.4 °F 43.7 °F 65% 30.10 in 10.0 mi WSW 3.5 mph - N/A   Mostly Cloudy
9:35 PM 56.3 °F 43.7 °F 63% 30.11 in 10.0 mi Calm Calm - N/A   Mostly Cloudy
9:55 PM 55.9 °F 43.5 °F 63% 30.11 in 10.0 mi Calm Calm - N/A   Mostly Cloudy
10:15 PM 56.5 °F 43.5 °F 62% 30.11 in 10.0 mi ENE 3.5 mph - N/A   Scattered Clouds
10:35 PM 55.4 °F 43.5 °F 64% 30.11 in 10.0 mi SE 5.8 mph - N/A   Clear
10:55 PM 54.9 °F 44.1 °F 67% 30.11 in 10.0 mi SSE 5.8 mph - N/A   Clear
11:15 PM 54.7 °F 44.1 °F 67% 30.10 in 10.0 mi Calm Calm - N/A   Clear
11:35 PM 55.6 °F 43.9 °F 65% 30.09 in 10.0 mi SSE 3.5 mph - N/A   Clear
11:55 PM 55.9 °F 44.6 °F 66% 30.07 in 10.0 mi Calm Calm - N/A   Clear